Regional Weather Roundup
Issued by NWS

Home | Current Version | Previous Version | Text Only | Print | Product List | Glossary On
Versions: 1 2 3 4 5 6 7 8 9 10 11 12 13 14 15 16 17 18 19 20 21 22 23 24 25 26 27 28 29 30 31 32 33 34 35 36 37 38 39 40 41 42 43 44 45 46 47 48 49 50
539
ASUS42 KFFC 212010
RWRGA
WEATHER ROUNDUP FOR GEORGIA
NATIONAL WEATHER SERVICE PEACHTREE CITY GA
400 PM EDT SAT SEP 21 2019

NOTE: "FAIR" INDICATES FEW OR NO CLOUDS BELOW 12,000 FEET WITH NO
SIGNIFICANT WEATHER AND/OR OBSTRUCTIONS TO VISIBILITY.

* = USE WITH CAUTION. THE STATIONS MARKED WITH AN ASTERISK MAY NOT
REPORT WEATHER SUCH AS PRECIPITATION, FOG, OR THUNDER AND ARE NOT
QUALITY CONTROLLED BY NWS.

THE REMARK "TC" DENOTES TEMPERATURE READING IN DEGREES CELSIUS.

GAZ001>058-212100-
NORTH GEORGIA

CITY           SKY/WX    TMP DP  RH WIND       PRES   REMARKS
ATLANTA        FAIR      86  54  33 SE6       30.23F
ATHENS         FAIR      85  59  41 VRB5      30.24F
CHAMBLEE       FAIR      85  55  35 VRB5      30.23F
PEACHTREE CITY FAIR      87  57  35 VRB5      30.23F
ROME           FAIR      89  53  29 VRB3      30.20F
WEST ATLANTA   FAIR      85  55  35 CALM      30.23F
GAINESVILLE    FAIR      83  58  42 SE9       30.27F
CARTERSVILLE   FAIR      89  56  32 VRB5      30.23F


CITY           SKY/WX    TMP DP  RH WIND       PRES   REMARKS
DALTON*        FAIR      88  45  22 S7        30.23F
LAWRENCEVILLE* FAIR      86  57  37 E8        30.24F
MARIETTA       MOSUNNY   85  56  36 NE5       30.23F
KENNESAW*      FAIR      87  58  37 E8        30.25F
CANTON*        FAIR      84  50  30 CALM      30.26F
BLAIRSVILLE*   FAIR     N/A N/A N/A SE8       30.28F
$$

GAZ059>098-102>109-212100-
CENTRAL GEORGIA

CITY           SKY/WX    TMP DP  RH WIND       PRES   REMARKS
AUGUSTA-BUSH   FAIR      87  58  37 CALM      30.21F
AUGUSTA-DANIEL FAIR      86  54  33 VRB5      30.23F
COLUMBUS       FAIR      89  57  33 VRB7      30.18F
MACON          FAIR      91  55  29 NE10      30.19F
ROBINS AFB     MOSUNNY   90  55  30 N7        30.18F


CITY           SKY/WX    TMP DP  RH WIND       PRES   REMARKS
LAGRANGE*      FAIR      85  53  33 S5        30.21F
SYLVANIA*      FAIR      88  53  30 E6        30.23F
MILLEDGEVILLE* FAIR      88  54  31 E3        30.21F
$$

GAZ099>101-110>166-212100-
SOUTH GEORGIA

CITY           SKY/WX    TMP DP  RH WIND       PRES   REMARKS
SAVANNAH       FAIR      85  63  47 E13       30.22F
VALDOSTA       PTSUNNY   85  59  41 E8G18     30.17F
ALMA           FAIR      87  55  33 MISG      30.18F
ST SIMONS      FAIR      83  66  56 NE15G23   30.20F
FT STEWART     PTSUNNY   86  59  40 SE13      30.19F
ALBANY         FAIR      90  56  31 E12       30.19F
HUNTER AFB     FAIR      83  65  54 E12       30.20F
MOODY AFB      FAIR      89  60  38 E9        30.16F
BRUNSWICK      FAIR      83  67  57 NE16G23   30.21F


CITY           SKY/WX    TMP DP  RH WIND       PRES   REMARKS
BAINBRIDGE*    PTSUNNY   89  56  33 E8G22     30.15F
MOULTRIE*      FAIR      88  55  33 E8        30.18F
VIDALIA*       FAIR      90  45  20 E9G17     30.21F
WAYCROSS*      CLOUDY    88  44  21 E10G16    30.18F
DOUGLAS*       FAIR      88  51  28 SE7       30.20F
$$




USA.gov is the U.S. government's official web portal to all federal, state and local government web resources and services.